sat.trackr.live / text

‹ back to catalog

STARLINK-37402

NORAD 69210 · 2026-114AE

PAYLOAD ACTIVE UNKNOWN

§ Identity

Operator
Country
US
Launch date
2026-05-25
Launch site
AFETR
Launch vehicle
Mass (kg)
RCS (m²)

Purposes: comms

External: N2YO · Heavens-Above · Gunter

§ Orbital elements

Epoch: 2026-09-19T23:59:17.744352Z

Period
93.85 min
Inclination
53.1583°
Eccentricity
0.0000979
Mean motion
15.34415038 rev/d
Perigee alt
462.0 km
Apogee alt
463.3 km
Semi-major
6,840.8 km
B*
4.2740e-4
RAAN
115.7346°
Arg perigee
97.5340°
Mean anomaly
262.5774°
Rev number
1,937

§ Raw data

STARLINK-374021 69210U 26114AE  26262.99951093  .00014098  00000+0  42740-3 0  99962 69210  53.1583 115.7346 0000979  97.5340 262.5774 15.34415038 19372

JSON: /api/v1/satellites/69210 · /tle

For live sub-satellite position, see the globe view (requires WebGL).

§ Visibility from observer

Set your observer location to see the next 7 days of passes ≥ 10°. The values pass through the URL so the page stays shareable.

No JS? Fill the form by hand. The geolocation button needs JavaScript.